Zurück zum Katalog

COSMOS 1806

AktivNavigationHEO
NORAD 17213·PAYLOAD·🇷🇺 Russia

Gestartet Dec 12, 1986 von Plesetsk Cosmodrome

Loading…

Nächste Überflüge (nächste 24 Stunden)

TLE

AktuellSource: Space-Track

Epoche: Sep 12, 2026, 20:26 UTC

1 17213U 86098A   26255.85178413  .00000078  00000-0  00000-0 0  9997
2 17213  68.6294 141.8111 4774923  76.7665  49.5134  2.00775420291062

Verfolge COSMOS 1806 in Echtzeit mit AllMySat

Download on the App Store